Tracking 20083 objects as of 9-Dec-2019
HD Live streaming from Space Station
objects crossing your sky now

FENGYUN 1C DEB

Track FENGYUN 1C DEB now!
10-day predictions


NORAD ID: 32178
Int'l Code: 1999-025CTY
Perigee: 779.2 km
Apogee: 936.4 km
Inclination: 100.3 °
Period: 101.9 minutes
Semi major axis: 7228 km
RCS: 0.0128 m2 (small)
Launch date: May 10, 1999
Source: People's Republic of China (PRC)
Launch site: Taiyaun Space Center, China (TSC)

Note: This is SATELLITE DEBRIS
aabbcc
Your satellite tracking list
Your tracking list is empty




NASA's NSSDC Master Catalog

Two Line Element Set (TLE):
1 32178U 99025CTY 19342.24550200  .00000360  00000-0  21279-3 0  9996
2 32178 100.3087 334.5525 0108672 169.6622 190.6816 14.12550368638020
Source of the keplerian elements: AFSPC